TimeMST,TemperatureF,Dew PointF,Humidity,Sea Level PressureIn,VisibilityMPH,Wind Direction,Wind SpeedMPH,Gust SpeedMPH,PrecipitationIn,Events,Conditions,WindDirDegrees,DateUTC
12:15 AM,48.2,17.6,30,30.13,10.0,SSW,13.8,20.7,N/A,,Clear,200,2013-03-06 07:15:00
12:35 AM,48.2,19.4,32,30.13,10.0,South,17.3,24.2,N/A,,Clear,180,2013-03-06 07:35:00
12:55 AM,46.4,19.4,34,30.12,10.0,South,15.0,21.9,N/A,,Clear,180,2013-03-06 07:55:00
1:15 AM,46.4,19.4,34,30.12,10.0,South,17.3,25.3,N/A,,Clear,180,2013-03-06 08:15:00
1:35 AM,46.4,19.4,34,30.11,10.0,South,18.4,24.2,N/A,,Clear,180,2013-03-06 08:35:00
1:55 AM,46.4,19.4,34,30.10,10.0,South,19.6,25.3,N/A,,Clear,180,2013-03-06 08:55:00
2:15 AM,46.4,19.4,34,30.11,10.0,South,16.1,21.9,N/A,,Clear,180,2013-03-06 09:15:00
2:35 AM,44.6,19.4,37,30.11,10.0,South,15.0,-,N/A,,Clear,180,2013-03-06 09:35:00
2:55 AM,44.6,19.4,37,30.10,10.0,South,12.7,-,N/A,,Clear,170,2013-03-06 09:55:00
3:15 AM,44.6,19.4,37,30.09,10.0,South,12.7,-,N/A,,Clear,180,2013-03-06 10:15:00
3:35 AM,44.6,19.4,37,30.09,10.0,South,10.4,-,N/A,,Clear,180,2013-03-06 10:35:00
3:55 AM,44.6,19.4,37,30.09,10.0,South,12.7,18.4,N/A,,Clear,180,2013-03-06 10:55:00
4:15 AM,44.6,19.4,37,30.09,10.0,South,11.5,-,N/A,,Clear,180,2013-03-06 11:15:00
4:35 AM,44.6,19.4,37,30.08,10.0,South,12.7,19.6,N/A,,Clear,180,2013-03-06 11:35:00
4:55 AM,44.6,19.4,37,30.09,10.0,South,13.8,-,N/A,,Clear,190,2013-03-06 11:55:00
5:15 AM,44.6,19.4,37,30.09,10.0,South,10.4,-,N/A,,Clear,180,2013-03-06 12:15:00
5:35 AM,44.6,19.4,37,30.09,10.0,South,11.5,17.3,N/A,,Clear,190,2013-03-06 12:35:00
5:55 AM,44.6,19.4,37,30.10,10.0,South,10.4,16.1,N/A,,Clear,190,2013-03-06 12:55:00
6:15 AM,44.6,21.2,39,30.10,10.0,South,11.5,-,N/A,,Clear,170,2013-03-06 13:15:00
6:35 AM,44.6,21.2,39,30.10,10.0,South,8.1,17.3,N/A,,Clear,170,2013-03-06 13:35:00
6:55 AM,44.6,21.2,39,30.11,10.0,South,11.5,18.4,N/A,,Clear,190,2013-03-06 13:55:00
7:15 AM,44.6,21.2,39,30.12,10.0,South,11.5,17.3,N/A,,Clear,190,2013-03-06 14:15:00
7:35 AM,46.4,21.2,37,30.13,10.0,SSW,8.1,-,N/A,,Clear,200,2013-03-06 14:35:00
7:55 AM,46.4,21.2,37,30.14,10.0,South,9.2,-,N/A,,Partly Cloudy,190,2013-03-06 14:55:00
8:15 AM,46.4,21.2,37,30.15,10.0,SSW,9.2,-,N/A,,Clear,200,2013-03-06 15:15:00
8:35 AM,46.4,23.0,40,30.15,10.0,South,11.5,-,N/A,,Clear,190,2013-03-06 15:35:00
8:55 AM,48.2,23.0,37,30.15,10.0,South,13.8,18.4,N/A,,Clear,190,2013-03-06 15:55:00
9:15 AM,48.2,23.0,37,30.15,10.0,SSW,17.3,24.2,N/A,,Clear,200,2013-03-06 16:15:00
9:35 AM,50.0,23.0,35,30.15,10.0,SSW,13.8,21.9,N/A,,Clear,200,2013-03-06 16:35:00
9:55 AM,50.0,19.4,30,30.15,10.0,South,16.1,25.3,N/A,,Clear,190,2013-03-06 16:55:00
10:15 AM,53.6,17.6,24,30.14,10.0,South,16.1,26.5,N/A,,Clear,190,2013-03-06 17:15:00
10:35 AM,55.4,17.6,23,30.14,10.0,SSW,16.1,24.2,N/A,,Clear,200,2013-03-06 17:35:00
10:55 AM,55.4,15.8,21,30.15,10.0,SSW,19.6,26.5,N/A,,Clear,210,2013-03-06 17:55:00
11:15 AM,57.2,15.8,20,30.15,10.0,SW,18.4,23.0,N/A,,Clear,220,2013-03-06 18:15:00
11:55 AM,57.2,17.6,21,30.14,10.0,SW,18.4,26.5,N/A,,Clear,220,2013-03-06 18:55:00
12:15 PM,57.2,17.6,21,30.13,10.0,SW,18.4,25.3,N/A,,Clear,220,2013-03-06 19:15:00
12:35 PM,57.2,15.8,20,30.12,10.0,SW,20.7,27.6,N/A,,Clear,220,2013-03-06 19:35:00
12:55 PM,59.0,17.6,20,30.11,10.0,WSW,16.1,27.6,N/A,,Clear,240,2013-03-06 19:55:00
1:15 PM,59.0,17.6,20,30.10,10.0,South,12.7,24.2,N/A,,Clear,190,2013-03-06 20:15:00
1:35 PM,60.8,17.6,19,30.09,10.0,SW,16.1,26.5,N/A,,Clear,230,2013-03-06 20:35:00
1:55 PM,59.0,15.8,19,30.08,10.0,SSW,23.0,29.9,N/A,,Clear,210,2013-03-06 20:55:00
2:15 PM,59.0,15.8,19,30.07,10.0,SW,20.7,27.6,N/A,,Clear,230,2013-03-06 21:15:00
2:55 PM,59.0,14.0,17,30.06,10.0,SW,20.7,26.5,N/A,,Clear,220,2013-03-06 21:55:00
3:15 PM,60.8,12.2,15,30.06,10.0,SSW,23.0,28.8,N/A,,Clear,210,2013-03-06 22:15:00
3:35 PM,60.8,12.2,15,30.05,10.0,SSW,18.4,25.3,N/A,,Clear,200,2013-03-06 22:35:00
3:55 PM,59.0,14.0,17,30.05,10.0,SW,18.4,29.9,N/A,,Clear,220,2013-03-06 22:55:00
4:15 PM,59.0,14.0,17,30.05,10.0,SSW,24.2,28.8,N/A,,Clear,200,2013-03-06 23:15:00
4:35 PM,59.0,12.2,16,30.05,10.0,SSW,19.6,28.8,N/A,,Clear,210,2013-03-06 23:35:00
4:55 PM,59.0,10.4,15,30.05,10.0,SW,23.0,27.6,N/A,,Clear,220,2013-03-06 23:55:00
5:15 PM,57.2,14.0,18,30.05,10.0,SSW,20.7,25.3,N/A,,Clear,200,2013-03-07 00:15:00
5:35 PM,57.2,15.8,20,30.04,10.0,SSW,17.3,25.3,N/A,,Clear,210,2013-03-07 00:35:00
5:55 PM,55.4,15.8,21,30.05,10.0,SW,12.7,-,N/A,,Clear,220,2013-03-07 00:55:00
6:15 PM,53.6,15.8,22,30.05,10.0,SW,13.8,21.9,N/A,,Clear,220,2013-03-07 01:15:00
6:35 PM,51.8,17.6,26,30.05,10.0,SSW,11.5,-,N/A,,Clear,210,2013-03-07 01:35:00
6:55 PM,50.0,19.4,30,30.05,10.0,SSW,9.2,-,N/A,,Clear,210,2013-03-07 01:55:00
7:15 PM,48.2,19.4,32,30.06,10.0,SSW,9.2,-,N/A,,Clear,200,2013-03-07 02:15:00
7:35 PM,46.4,19.4,34,30.06,10.0,South,6.9,-,N/A,,Clear,190,2013-03-07 02:35:00
7:55 PM,44.6,19.4,37,30.07,10.0,South,6.9,-,N/A,,Clear,180,2013-03-07 02:55:00
8:15 PM,42.8,21.2,42,30.07,10.0,South,8.1,-,N/A,,Clear,180,2013-03-07 03:15:00
8:35 PM,41.0,19.4,42,30.06,10.0,South,5.8,-,N/A,,Clear,180,2013-03-07 03:35:00
8:55 PM,41.0,21.2,45,30.07,10.0,South,5.8,-,N/A,,Clear,190,2013-03-07 03:55:00
9:15 PM,39.2,21.2,49,30.07,10.0,South,4.6,-,N/A,,Clear,190,2013-03-07 04:15:00
9:35 PM,37.4,19.4,48,30.07,10.0,South,6.9,-,N/A,,Clear,190,2013-03-07 04:35:00
9:55 PM,37.4,19.4,48,30.07,10.0,WSW,5.8,-,N/A,,Clear,240,2013-03-07 04:55:00
10:15 PM,37.4,19.4,48,30.07,10.0,SSW,5.8,-,N/A,,Clear,200,2013-03-07 05:15:00
10:35 PM,37.4,19.4,48,30.07,10.0,South,6.9,-,N/A,,Clear,170,2013-03-07 05:35:00
10:55 PM,37.4,19.4,48,30.07,10.0,South,8.1,-,N/A,,Clear,180,2013-03-07 05:55:00
11:15 PM,35.6,19.4,52,30.07,10.0,South,8.1,-,N/A,,Clear,170,2013-03-07 06:15:00
11:35 PM,37.4,19.4,48,30.06,10.0,SSE,8.1,-,N/A,,Clear,160,2013-03-07 06:35:00
11:55 PM,39.2,19.4,45,30.06,10.0,South,9.2,-,N/A,,Clear,170,2013-03-07 06:55:00